| time (UTC) | temp F | wind direction | speed MPH | gust MPH | rain 1hr in | rain 24hr in | rain mn in | humidity % | barometer mb |
| 20260505053023 | 54 | 305 | 6.0 | 11.0 | 0.00 | 0.00 | 0.00 | 86 | 1013.0 |
| 20260505041516 | 59 | 319 | 8.0 | 13.0 | 0.00 | 0.00 | 0.00 | 79 | 1012.1 |
| 20260505040028 | 60 | 321 | 8.0 | 13.0 | 0.00 | 0.00 | 0.00 | 77 | 1011.8 |
| 20260505034511 | 62 | 296 | 5.0 | 9.0 | 0.00 | 0.00 | 0.00 | 74 | 1011.6 |
| 20260505033012 | 63 | 310 | 1.0 | 11.0 | 0.00 | 0.00 | 0.00 | 72 | 1011.2 |
| 20260505024520 | 68 | 328 | 4.0 | 10.0 | 0.00 | 0.00 | 0.00 | 62 | 1010.6 |
| 20260505023018 | 69 | 295 | 5.0 | 14.0 | 0.00 | 0.00 | 0.00 | 60 | 1010.5 |
| 20260505021510 | 70 | 323 | 8.0 | 15.0 | 0.00 | 0.00 | 0.00 | 57 | 1010.4 |
| 20260505020024 | 70 | 321 | 11.0 | 18.0 | 0.00 | 0.00 | 0.00 | 54 | 1010.3 |
| 20260505014522 | 71 | 284 | 9.0 | 17.0 | 0.00 | 0.00 | 0.00 | 52 | 1010.2 |
| 20260505011515 | 73 | 322 | 10.0 | 19.0 | 0.00 | 0.00 | 0.00 | 49 | 1010.2 |
| 20260505003013 | 76 | 316 | 8.0 | 17.0 | 0.00 | 0.00 | 0.00 | 44 | 1010.2 |
| 20260505001512 | 76 | 304 | 6.0 | 19.0 | 0.00 | 0.00 | 0.00 | 46 | 1010.2 |
| 20260505000013 | 76 | 301 | 11.0 | 17.0 | 0.00 | 0.00 | 0.00 | 45 | 1010.1 |
| 20260504233014 | 76 | 333 | 9.0 | 18.0 | 0.00 | 0.00 | 0.00 | 43 | 1009.9 |
| 20260504231513 | 77 | 304 | 10.0 | 19.0 | 0.00 | 0.00 | 0.00 | 47 | 1010.1 |
| 20260504230012 | 77 | 247 | 2.0 | 10.0 | 0.00 | 0.00 | 0.00 | 61 | 1010.2 |
| 20260504224513 | 77 | 234 | 3.0 | 8.0 | 0.00 | 0.00 | 0.00 | 60 | 1010.3 |
| 20260504221521 | 75 | 215 | 4.0 | 9.0 | 0.00 | 0.00 | 0.00 | 63 | 1010.5 |
| 20260504220016 | 75 | 214 | 4.0 | 9.0 | 0.00 | 0.00 | 0.00 | 58 | 1010.7 |
| 20260504214514 | 74 | 241 | 4.0 | 9.0 | 0.00 | 0.00 | 0.00 | 62 | 1010.9 |
| 20260504211512 | 73 | 257 | 3.0 | 9.0 | 0.00 | 0.00 | 0.00 | 63 | 1011.1 |
| 20260504210016 | 72 | 155 | 1.0 | 10.0 | 0.00 | 0.00 | 0.00 | 63 | 1011.2 |
| 20260504204514 | 72 | 254 | 1.0 | 9.0 | 0.00 | 0.00 | 0.00 | 61 | 1011.4 |
| 20260504203013 | 71 | 163 | 1.0 | 6.0 | 0.00 | 0.00 | 0.00 | 64 | 1011.6 |
| 20260504201514 | 70 | 165 | 3.0 | 9.0 | 0.00 | 0.00 | 0.00 | 66 | 1011.7 |
| 20260504200033 | 69 | 186 | 3.0 | 10.0 | 0.00 | 0.00 | 0.00 | 61 | 1011.9 |
| 20260504194512 | 68 | 198 | 1.0 | 10.0 | 0.00 | 0.00 | 0.00 | 68 | 1012.1 |
| 20260504190016 | 66 | 232 | 3.0 | 10.0 | 0.00 | 0.00 | 0.00 | 75 | 1012.4 |
| 20260504184515 | 65 | 205 | 3.0 | 8.0 | 0.00 | 0.00 | 0.00 | 74 | 1012.6 |
| 20260504183029 | 64 | 229 | 2.0 | 8.0 | 0.00 | 0.00 | 0.00 | 76 | 1012.9 |
| 20260504181523 | 63 | 225 | 1.0 | 10.0 | 0.00 | 0.00 | 0.00 | 76 | 1012.8 |
| 20260504180020 | 63 | 214 | 1.0 | 8.0 | 0.00 | 0.00 | 0.00 | 78 | 1012.9 |
| 20260504174516 | 62 | 240 | 1.0 | 9.0 | 0.00 | 0.00 | 0.00 | 78 | 1012.8 |
| 20260504173014 | 61 | 175 | 5.0 | 10.0 | 0.00 | 0.00 | 0.00 | 78 | 1012.9 |
| 20260504171522 | 61 | 173 | 4.0 | 12.0 | 0.00 | 0.00 | 0.00 | 79 | 1012.7 |
| 20260504081520 | 57 | 100 | 2.0 | 3.0 | 0.00 | 0.00 | 0.00 | 78 | 1009.2 |